Погода Покровская

Погода Покровская : погода сейчас, прогноз погоды и архив. Всё, что Вы хотите узнать о погоде Покровская!

Хотите узнать прогноз погоды Покровская? Тогда Вам сюда: Погода Покровская

Поиск расширенной информации на нашем сайте:

Другие новости

Новости СМИ2

Главная страница сайта

Новости сайта

02.10.2013

Напоминаем, что на нашем новом сайте вы можете получить высокодетализированные прогнозы погоды по пунктам России, СНГ и мира (включающие важные для авиации метеовеличины, такие как направление и скорость ветра, видимость, явления погоды, количество и форма облачности, нижняя и верхняя граница облачности), а также ознакомиться с разнообразными материалами по авиационной метеорологии и подборкой полезных ссылок на эту тему.

Сайт Метеоцентр.Азия посвящён разработке технологий оптимизации авиаметеорологического обслуживания, включая проектирование и перспективное создание нескольких автоматизированных авиаметеорологических систем:
- система выпуска высокодетальных прогностических карт явлений погоды для нижнего воздушного пространства по России и ближнему зарубежью;
- система верификации прогнозов TAF (выпускаемых синоптиками официальных АМСГ РФ и ближнего зарубежья) и AUTOTAF (выпускаемых сайтом Метеоцентр.Азия) - выявление ошибок, онлайн-сопоставление с фактической погодой METAR, автоматическое внесение коррективов в прогнозы при резком отклонении фактической погоды от прогноза, подсчёт оправдываемости прогнозов по элементам и в целом;
- система обработки, анализа и отображения авиаметеорологической информации для применения провайдерами метеорологической информации.

Рекомендуем: Олег Пермяков отзывы о мотивационных видео автора.

Погода Покровская - сегодня

Время (UTC), дата Ветер
(°,м/с) 
Видим.   Явления Облачность Т
(°С)
Тd
(°С)
f(%) Тe
(°С)
Pmin
(гПа)
dP
(гПа)
Po
(мм)
O2
(г/м3)
Тmin Tmax R s Состояние
почвы
06 19.01.17 050 (СВ) 20000 м  слаб. снег  10/0 средняя 
[As op]
-32.8 -35.1 80 -37  1033.4  -0.7  762  351           
09 19.01.17 330 (СЗ) 20000 м  слаб. снег  10/0 средняя 
[As op]
-35.9 -38.1 80 -37  1033.5  -0.2  762  355           
12 19.01.17 тихо ()   10 км  слаб. снег  10/0 средняя 
[As op]
-39.5 -41.7 79 -40  1033.5  -0.3  762  361    -31.4  0.0     
15 19.01.17 240 (ЮЗ) 10 км  слаб. снег  10/0 
-41.6 -43.8 79 -43  1033.4  -0.3  761  364           
18 19.01.17 тихо ()   10 км  слаб. снег  10/0 
-43.2 -45 82 -43  1033.2  -0.3  761  366           
21 19.01.17 240 (ЮЗ) 10 км  слаб. снег  10/0 
-44.2   1033.2  761             
00 20.01.17 250 (З) 1000 м  дымка{снег}  ясно 
-44.5 -46.4 81 -46  1033.5  0.3  761  369  -44.5    0.0  20  равномерный
сухой снег
100% 
03 20.01.17 тихо ()   1000 м  дымка  3/0 верхняя 
[Ci fib]
-41 -43.2 79 -41  1033.7  0.4  762  363           
06 20.01.17 тихо ()   1000 м  дымка  3/0 верхняя 
[Ci fib]
-40 -42.2 79 -40  1034  0.1  762  362           
09 20.01.17 тихо ()   0500 м  туман  ясно 
-40.7 -42.7 81 -41  1034.4  0.6  762  363           
12 20.01.17 тихо ()   0500 м  туман  ясно 
-42.3 -44.4 80 -42  1035  0.5  763  366    -40.7       
15 20.01.17 250 (З) 2000 м  дымка{туман}  ясно 
-42.7 -45 78 -48  1034.8  -0.2  762  366           
18 20.01.17 240 (ЮЗ) 4000 м  дымка{туман}  ясно 
-39 -41.2 80 -44  1034.8  0.3  763  361           
21 20.01.17 250 (З) 4000 м  дымка  ясно 
-35.7 -38.1 78 -40  1035.3  0.6  763  356           
00 21.01.17 260 (З) 4000 м  дымка  10/0 верхняя 
[Cs]
-36.8 -39.1 79 -38  1035.8  0.5  763  358  -43.2      20  равномерный
сухой снег
100% 
03 21.01.17 220 (ЮЗ) 10 км  дымка  10/0 средняя, верхняя 
[Ac trans|Ci fib]
-33.1 -35.4 80 -34  1035.7  0.1  764  352           
06 21.01.17 220 (ЮЗ) 20000 м    6/0 верхняя 
[Ci fib]
-30.6 -33 79 -34  1034.5  -0.9  763  348           
09 21.01.17 250 (З) 20000 м    3/0 верхняя 
[Ci fib]
-33.4 -35.6 81 -37  1034.4  -0.3  763  352           
12 21.01.17 250 (З) 20000 м    ясно 
-40 -42.2 79 -45  1034.6  -0.3  762  362    -30.6       
15 21.01.17 240 (ЮЗ) 20000 м    ясно 
-39.3 -41.7 78 -44  1033.7  -0.9  762  361           
18 21.01.17 тихо ()   20000 м    ясно 
-38.5 -40.8 79 -39  1032.6  -0.9  761  359           
21 21.01.17 020 (С) 10 км  слаб. снег  10/0 верхняя 
[Cs]
-36.9 -39.1 80 -38  1032.6  0.1  761  357           
00 22.01.17 360 (С) 4000 м  дымка{снег}  4/0 верхняя 
[Ci fib]
-39.6 -41.7 80 -41  1032.1  -0.8  761  361  -40    0.0  20  равномерный
сухой снег
100% 
03 22.01.17 030 (СВ) 10 км  {туман}  8/0 верхняя 
[Ci fib]
-38.5 -40.8 79 -40  1031.9  761  359           
06 22.01.17 040 (СВ) 10 км  слаб. снег{туман}  10/0 средняя, верхняя 
[Ac trans|Cs]
-37 -39.1 81 -41  1031.1  -0.8  760  356           
Время (UTC), дата Ветер
(°,м/с) 
Видим.   Явления Облачность Т
(°С)
Тd
(°С)
f(%) Тe
(°С)
Pmin
(гПа)
dP
(гПа)
Po
(мм)
O2
(г/м3)
Тmin Tmax R s Состояние
почвы

Для получения пояснительной информации подведите курсор к названию столбца.

ПОГОДА Покровская - архив

Всё, что Вы хотите узнать о погоде Покровская - удобно и подробно!

Выберите нужную дату (начиная с 1 января 2015* года) и нажмите кнопку "Найти".
Будут отображены архивные сводки погоды по пункту Покровская, начиная с указанной даты.


Отображать данные в формате CSV (для использования в таблицах Excel)


Внимание! Наш архив погоды предназначен исключительно для личного некоммерческого использования в познавательных целях. Если Вам необходимы официальные справки о состоянии погоды (для производственных, юридических, коммерческих и т.п. целей), обращайтесь в органы Росгидромета.

*Примечание: данная дата относится к архиву по метеостанциям СССР (Россия, СНГ, Балтия).
Архив по метеостанциям Зарубежной Европы и Азии (кроме Китая) хранится 10 дней, по другим регионам земного шара (Китай, Африка, Америка, Австралия, Океания) - 1 день.

Покровская - район местоположения метеостанции


Название, широта, долгота, высота метеостанции:
Покровская 61.5°ш. 129.2°д. 115 м над ур. моря [Российская Федерация]

Дополнительная информация

В oтличие oт бoльшинства пoгoдных сайтoв мы публикуем пoдрoбную метеoинфoрмацию в детальнoм прoфессиoнальнoм фoрмате.

Характеристики температуры и влажнoсти вoздуха измеряются на высoте 2 м в тени вдали oт зданий и деревьев.
Скoрoсть ветра измеряется на высoте 10 м (на урoвне рoста челoвека скoрoсть ветра ниже в 1.5-2 раза). Если метеoстанция нахoдится в гoрoде или в лесу, тo скoрoсть ветра занижена на 2-4 м/с пo сравнению с oткрытым местoм. Скoрoсть ветра над акватoриями крупных рек и oзёр, а также на вершинах хoлмoв на 2-5 м/с выше, чем в oбычных услoвиях.
Атмoсфернoе давление в разных тoчках местнoсти мoжет значительнo oтличаться oт давления на метеoстанции, в зависимoсти oт услoвий рельефа (при пoдъёме на 10 м давление пoнижается примернo на 1 мм рт.ст.).